sat.trackr.live / text

‹ back to catalog

STARLINK-37237

NORAD 69185 · 2026-114D

PAYLOAD ACTIVE UNKNOWN

§ Identity

Operator
Country
US
Launch date
2026-05-25
Launch site
AFETR
Launch vehicle
Mass (kg)
RCS (m²)

Purposes: comms

External: N2YO · Heavens-Above · Gunter

§ Orbital elements

Epoch: 2026-09-19T20:33:38.392704Z

Period
93.85 min
Inclination
53.1594°
Eccentricity
0.0002505
Mean motion
15.34411539 rev/d
Perigee alt
461.0 km
Apogee alt
464.4 km
Semi-major
6,840.8 km
B*
6.1097e-4
RAAN
117.0132°
Arg perigee
73.3468°
Mean anomaly
286.7809°
Rev number
1,934

§ Raw data

STARLINK-372371 69185U 26114D   26262.85669436  .00020330  00000+0  61097-3 0  99912 69185  53.1594 117.0132 0002505  73.3468 286.7809 15.34411539 19349

JSON: /api/v1/satellites/69185 · /tle

For live sub-satellite position, see the globe view (requires WebGL).

§ Visibility from observer

Set your observer location to see the next 7 days of passes ≥ 10°. The values pass through the URL so the page stays shareable.

No JS? Fill the form by hand. The geolocation button needs JavaScript.